Hanamaulu, HI

8:02 AM HST on February 09, 2016 (GMT -1000)
Lihue

Weather History for PHLI - March, 2013

Change the Weather History Date:

Friday, March 1, 2013

  Actual Average Record
Temperature  
Mean Temperature 73 °F 72 °F  
Max Temperature 76 °F 78 °F 83 °F (1984)
Min Temperature 69 °F 66 °F 54 °F (1953)
Degree Days  
Heating Degree Days 0 0  
Month to date heating degree days 0 0  
Since 1 July heating degree days 0 0  
Cooling Degree Days 8 7  
Month to date cooling degree days 8 7  
Year to date cooling degree days 395 402  
Growing Degree Days 22 (Base 50)    
Moisture  
Dew Point 59 °F    
Average Humidity 64    
Maximum Humidity 73    
Minimum Humidity 54    
Precipitation  
Precipitation T in 0.14 in 5.15 in (1989)
Month to date precipitation T 0.14  
Year to date precipitation 6.88 7.05  
Snow  
Snow 0.00 in - - ()
Month to date snowfall 0.0  
Since 1 July snowfall 0.0  
Snow Depth 0.00 in    
Sea Level Pressure  
Sea Level Pressure 30.19 in    
Wind  
Wind Speed 21 mph (NE)    
Max Wind Speed 26 mph    
Max Gust Speed 31 mph    
Visibility 10 miles    
Events Rain    
T = Trace of Precipitation, MM = Missing Value Source: NWS Daily Summary

Daily Weather History Graph

Daily Weather History Graph

Search for Another Location

Airport or City:

Trip Planner

Search our weather history database for the weather conditions in past years. The results will help you decide how hot, cold, wet, or windy it might be!

Date:

Astronomy

Mar. 01, 2013 Rise Set
Actual Time 6:57 AM HST 6:41 PM HST
Civil Twilight 6:35 AM HST 7:03 PM HST
Nautical Twilight 6:09 AM HST 7:29 PM HST
Astronomical Twilight 5:43 AM HST 7:55 PM HST
Moon 10:46 PM HST (3/1) 9:29 AM HST (3/1)
Length of Visible Light 12h 28m
Length of Day
11h 43m
Waning Gibbous, 81% of the Moon is Illuminated
Mar 1
Waning Gibbous
Mar 4
Last Quarter
Mar 11
New
Mar 19
First Quarter
Mar 26
Full

Hourly Weather History & Observations

Time (HST) Temp. Dew Point Humidity Pressure Visibility Wind Dir Wind Speed Gust Speed Precip Events Conditions
12:39 AM 69.8 °F 57.2 °F 64% 30.23 in 10.0 mi NE 23.0 mph - N/A   Mostly Cloudy
12:53 AM 70.0 °F 57.9 °F 65% 30.22 in 10.0 mi NE 19.6 mph 31.1 mph N/A   Mostly Cloudy
1:53 AM 70.0 °F 60.1 °F 71% 30.21 in 10.0 mi NE 18.4 mph - N/A   Overcast
2:01 AM 69.8 °F 60.8 °F 73% 30.21 in 10.0 mi NE 17.3 mph - N/A   Overcast
2:09 AM 69.8 °F 60.8 °F 73% 30.20 in 10.0 mi NE 20.7 mph - N/A   Mostly Cloudy
2:53 AM 70.0 °F 59.0 °F 68% 30.18 in 10.0 mi ENE 20.7 mph - N/A   Mostly Cloudy
3:53 AM 70.0 °F 59.0 °F 68% 30.16 in 10.0 mi ENE 20.7 mph 28.8 mph N/A   Mostly Cloudy
4:53 AM 69.1 °F 57.0 °F 65% 30.16 in 10.0 mi NE 21.9 mph 28.8 mph N/A   Mostly Cloudy
5:53 AM 70.0 °F 57.9 °F 65% 30.16 in 10.0 mi NE 24.2 mph 29.9 mph N/A   Overcast
6:53 AM 69.1 °F 57.0 °F 65% 30.17 in 10.0 mi NE 23.0 mph - N/A   Mostly Cloudy
7:53 AM 69.1 °F 60.1 °F 73% 30.19 in 10.0 mi NE 23.0 mph 31.1 mph 0.00 in Rain Light Rain
8:53 AM 72.0 °F 60.1 °F 66% 30.21 in 10.0 mi NE 27.6 mph 31.1 mph 0.00 in   Overcast
9:53 AM 70.0 °F 61.0 °F 73% 30.23 in 10.0 mi NE 23.0 mph 28.8 mph 0.00 in Rain Light Rain
10:53 AM 73.0 °F 59.0 °F 61% 30.23 in 10.0 mi NE 24.2 mph 29.9 mph 0.00 in   Overcast
11:53 AM 75.0 °F 59.0 °F 57% 30.22 in 10.0 mi NE 21.9 mph - N/A   Mostly Cloudy
12:53 PM 75.0 °F 57.9 °F 55% 30.20 in 10.0 mi NE 21.9 mph - N/A   Partly Cloudy
1:53 PM 75.0 °F 59.0 °F 57% 30.17 in 10.0 mi NE 19.6 mph - N/A   Partly Cloudy
2:53 PM 75.0 °F 59.0 °F 57% 30.15 in 10.0 mi ENE 20.7 mph - N/A   Partly Cloudy
3:53 PM 73.9 °F 57.9 °F 57% 30.14 in 10.0 mi ENE 19.6 mph - N/A   Clear
4:53 PM 73.0 °F 57.0 °F 57% 30.14 in 10.0 mi ENE 19.6 mph - N/A   Partly Cloudy
5:53 PM 71.1 °F 59.0 °F 66% 30.14 in 10.0 mi ENE 18.4 mph - N/A   Partly Cloudy
6:53 PM 70.0 °F 59.0 °F 68% 30.14 in 10.0 mi ENE 18.4 mph - N/A   Scattered Clouds
7:53 PM 70.0 °F 59.0 °F 68% 30.17 in 10.0 mi ENE 20.7 mph - N/A   Scattered Clouds
8:53 PM 70.0 °F 60.1 °F 71% 30.19 in 10.0 mi NE 20.7 mph - N/A   Mostly Cloudy
9:53 PM 70.0 °F 59.0 °F 68% 30.20 in 10.0 mi ENE 20.7 mph 29.9 mph N/A   Mostly Cloudy
10:53 PM 70.0 °F 59.0 °F 68% 30.21 in 10.0 mi NE 20.7 mph 27.6 mph N/A   Mostly Cloudy
11:53 PM 70.0 °F 59.0 °F 68% 30.20 in 10.0 mi NE 20.7 mph - N/A   Mostly Cloudy